[[{"header":{"parameterUnit":"m.s-1","parameterCategory":1,"la1":30.2991,"la2":30.254,"lo1":-89.0895,"lo2":-89.0444,"dy":0.0017,"dx":0.0017,"nx":28,"ny":28,"refTime":"2025-01-25T09:00:00:Z","depth":0,"parameterNumber":2,"parameterNumberName":"U-component_of_WINDS"},"data":[0,0,0,0,0,0,0,0,0,0,0,0,0,0,0,0,0,0,0,0,0,0,0,0,0,0,0,0,0,0,0,0,0,0,0,0,0,0,0,0,0,0,0,0,0,0,0,0,0,0,0,0,0,0,0,0,0,0,-3.5161,-3.5162,0,-3.5221,-3.5222,-3.5222,-3.5125,-3.5121,-3.5118,-3.5115,-3.5175,-3.518,-3.5184,0,0,0,0,0,0,0,0,0,0,0,0,0,-3.4961,-3.4965,-3.5161,-3.5162,-3.5163,-3.5221,-3.5222,-3.5223,-3.5125,-3.5121,-3.5117,-3.5113,-3.5174,-3.5179,-3.5185,0,0,0,0,0,0,0,0,0,0,0,0,0,-3.5037,-3.4966,-3.5161,-3.5121,-3.5118,-3.5221,-3.5222,-3.5223,-3.5126,-3.5121,-3.5116,-3.5111,-3.5172,-3.5179,-3.5186,-3.533,0,0,-3.5207,-3.521,0,0,0,0,0,0,0,0,-3.5033,-3.5045,-3.5126,-3.5124,-3.5121,-3.516,-3.5173,-3.5259,-3.5127,-3.5123,-3.5115,-3.5109,-3.5174,-3.5181,-3.5203,-3.5333,-3.5335,-3.5208,-3.5212,-3.5215,-3.5217,0,0,0,0,0,0,0,-3.5028,-3.5041,-3.5185,-3.5128,-3.5124,-3.51,-3.5105,-3.5189,-3.5176,-3.5123,-3.5116,-3.5124,-3.5172,-3.5196,-3.5204,-3.5336,-3.5208,-3.5214,-3.5218,-3.5221,-3.5585,-3.559,0,0,0,0,0,0,-3.5028,-3.5038,-3.5183,-3.5187,-3.5064,-3.5107,-3.5113,-3.5153,-3.5175,-3.5173,-3.5129,-3.512,-3.5187,-3.5196,-3.5205,-3.5374,-3.5215,-3.5222,-3.5226,-3.558,-3.5586,-3.5592,0,0,0,0,0,0,-3.5024,-3.5041,-3.518,-3.511,-3.5126,-3.5116,-3.5161,-3.5156,-3.5181,-3.5179,-3.5176,-3.5156,-3.5183,-3.5195,-3.5299,-3.5375,-3.5225,-3.5232,-3.5573,-3.5582,-3.5589,-3.5714,0,0,0,0,0,0,-3.5018,-3.5041,-3.5096,-3.5112,-3.513,-3.5274,-3.5166,-3.5161,-3.5194,-3.5182,-3.5204,-3.5203,-3.518,-3.5289,-3.5306,-3.5382,-3.5237,-3.5566,-3.5577,-3.5587,-3.5703,-3.5726,-3.5745,0,0,0,0,0,-3.5011,-3.5129,-3.5099,-3.5117,-3.5199,-3.5279,-3.5289,-3.526,-3.52,-3.5255,-3.5254,-3.5202,-3.5364,-3.5301,-3.5319,-3.5398,-3.5562,-3.5574,-3.5586,-3.5694,-3.5721,-3.5744,0,0,0,0,0,0,-3.5122,-3.513,-3.5097,-3.5224,-3.5251,-3.5262,-3.5331,-3.5291,-3.5336,-3.5323,-3.5285,-3.5291,-3.5403,-3.5411,-3.534,-3.5538,-3.5453,-3.5469,-3.5529,-3.5554,-3.5575,-3.557,-3.5243,0,0,0,0,0,-3.5161,-3.5225,-3.5229,-3.534,-3.5356,-3.5341,-3.5375,-3.535,-3.5377,-3.5388,-3.5394,-3.5422,-3.5479,-3.5517,-3.5569,-3.5704,-3.5707,-3.5767,-3.5788,-3.5805,-3.582,-3.589,-3.5916,-3.5632,-3.5632,-3.5632,0,0,-3.5242,-3.5255,-3.5298,-3.5363,-3.5381,-3.5448,-3.5352,-3.5427,-3.5476,-3.54,-3.5498,-3.5503,-3.5532,-3.5651,-3.5704,-3.5661,-3.5899,-3.5821,-3.5834,-3.5839,-3.5905,-3.5932,-3.5956,-3.564,-3.5639,-3.5638,0,0,-3.5424,-3.5441,-3.5534,-3.5555,-3.5584,-3.5573,-3.5596,-3.5613,-3.5613,-3.5711,-3.5655,-3.5712,-3.5812,-3.5833,-3.5858,-3.6047,-3.6001,-3.6065,-3.6173,-3.6242,-3.6264,-3.6284,-3.635,-3.6374,-3.608,-3.608,-3.608,0,-3.5521,-3.562,-3.5587,-3.5666,-3.5696,-3.563,-3.5724,-3.5745,-3.579,-3.5811,-3.5763,-3.5885,-3.59,-3.6022,-3.6069,-3.6091,-3.6114,-3.6062,-3.6264,-3.6283,-3.6301,-3.6364,-3.6389,-3.6087,-3.6087,-3.6086,-3.6085,0,-3.5737,-3.5807,-3.5879,-3.5923,-3.5961,-3.6047,-3.6027,-3.6069,-3.6041,-3.6035,-3.6135,-3.615,-3.6204,-3.6231,-3.6205,-3.635,-3.6322,-3.627,-3.6183,-3.6336,-3.6394,-3.6418,-3.6098,-3.6095,-3.6093,-3.6091,0,0,-3.5991,-3.6015,-3.6042,-3.6061,-3.6088,-3.614,-3.6223,-3.6275,-3.6311,-3.6344,-3.6412,-3.6497,-3.6448,-3.6475,-3.6451,-3.6511,-3.6659,-3.6451,-3.6451,-3.6488,-3.6818,-3.6857,-3.6885,-3.6628,-3.6633,-3.6637,-3.6815,0,-3.6171,-3.6313,-3.6286,-3.6425,-3.6487,-3.6425,-3.6497,-3.6521,-3.6517,-3.657,-3.6566,-3.6626,-3.6557,-3.6573,-3.6631,-3.6629,-3.6724,-3.6615,-3.669,-3.6693,-3.6684,-3.6916,-3.6957,-3.7125,-3.6838,-3.6841,-3.6844,0,-3.64,-3.6441,-3.6586,-3.6601,-3.6627,-3.6692,-3.6736,-3.6788,-3.6813,-3.6806,-3.6837,-3.68,-3.6881,-3.6794,-3.6904,-3.6831,-3.686,-3.6864,-3.6869,-3.6874,-3.6777,-3.6926,-3.7178,-3.7203,-3.688,-3.6877,-3.6875,0,-3.6568,-3.666,-3.6758,-3.6776,-3.6797,-3.6844,-3.6855,-3.6875,-3.6908,-3.6947,-3.6967,-3.7016,-3.7042,-3.708,-3.7057,-3.6996,-3.7171,-3.7083,-3.7167,-3.7167,-3.7206,-3.7203,-3.7465,-3.7227,-3.7226,-3.7226,-3.7225,0,-3.6772,-3.6863,-3.6834,-3.6894,-3.6994,-3.6961,-3.706,-3.7064,-3.7082,-3.7141,-3.7091,-3.7147,-3.7114,-3.7168,-3.7151,-3.7244,-3.7257,-3.7252,-3.7247,-3.7256,-3.7257,-3.7274,-3.7261,-3.7232,-3.7231,-3.723,-3.7228,0,-3.6977,-3.6961,-3.7064,-3.7075,-3.708,-3.7152,-3.7161,-3.7217,-3.721,-3.7285,-3.7301,-3.7289,-3.735,-3.7331,-3.7397,-3.7385,-3.7503,-3.7482,-3.7494,-3.7489,-3.7573,-3.7565,-3.7854,-3.7889,-3.763,-3.7632,-3.7634,0,-3.7107,-3.7175,-3.7193,-3.7229,-3.7244,-3.7303,-3.7335,-3.7305,-3.7342,-3.7375,-3.7426,-3.7482,-3.7526,-3.7625,-3.7622,-3.7671,-3.7651,-3.7749,-3.7658,-3.7665,-3.7651,-3.7647,-3.7653,-3.7767,-3.777,-3.7772,-3.7774,0,-3.7339,-3.7328,-3.7377,-3.7424,-3.7465,-3.75,-3.7531,-3.7563,-3.7535,-3.7578,-3.764,-3.7673,-3.7739,-3.7795,-3.784,-3.785,-3.7808,-3.7803,-3.7825,-3.7835,-3.7838,-3.7836,-3.7542,-3.7796,-3.7794,-3.7792,-3.7791,-3.779,-3.751,-3.7567,-3.7588,-3.7644,-3.7664,-3.7694,-3.7747,-3.7745,-3.7796,-3.7847,-3.7827,-3.7897,-3.7919,-3.7974,-3.799,-3.8044,-3.8006,-3.8039,-3.8046,-3.8054,-3.8064,-3.7831,-3.8052,-3.8052,-3.8051,-3.805,-3.805,0,-3.7738,-3.7748,-3.7801,-3.7845,-3.7889,-3.7845,-3.7877,-3.7917,-3.7979,-3.8003,-3.8046,-3.8116,-3.817,-3.8171,-3.822,-3.8263,-3.8245,-3.8277,-3.8273,-3.8276,-3.8096,-3.8072,-3.8291,-3.8291,-3.8291,-3.8291,-3.8291,-3.8291,-3.7862,-3.7956,-3.7947,-3.805,-3.8059,-3.8127,-3.8149,-3.8176,-3.8195,-3.8275,-3.8319,-3.8319,-3.8334,-3.8384,-3.8431,-3.843,-3.845,-3.8489,-3.8481,-3.8313,-3.8289,-3.8266,-3.8242,-3.8494,-3.8494,-3.8655,-3.8657,-3.8658]},{"header":{"parameterUnit":"m.s-1","parameterCategory":1,"la1":30.2991,"la2":30.254,"lo1":-89.0895,"lo2":-89.0444,"dy":0.0017,"dx":0.0017,"nx":28,"ny":28,"refTime":"2025-01-25T09:00:00:Z","depth":0,"parameterNumber":3,"parameterNumberName":"V-component_of_WINDS"},"data":[0,0,0,0,0,0,0,0,0,0,0,0,0,0,0,0,0,0,0,0,0,0,0,0,0,0,0,0,0,0,0,0,0,0,0,0,0,0,0,0,0,0,0,0,0,0,0,0,0,0,0,0,0,0,0,0,0,0,-1.7007,-1.7007,0,-1.7039,-1.7039,-1.704,-1.7047,-1.7047,-1.7047,-1.7047,-1.7078,-1.7079,-1.708,0,0,0,0,0,0,0,0,0,0,0,0,0,-1.695,-1.6951,-1.7007,-1.7007,-1.7008,-1.7039,-1.7039,-1.704,-1.7047,-1.7047,-1.7047,-1.7047,-1.7077,-1.7079,-1.708,0,0,0,0,0,0,0,0,0,0,0,0,0,-1.6978,-1.6951,-1.7007,-1.7016,-1.7017,-1.7039,-1.7039,-1.704,-1.7048,-1.7047,-1.7047,-1.7047,-1.7077,-1.7079,-1.708,-1.7095,0,0,-1.7085,-1.7085,0,0,0,0,0,0,0,0,-1.6976,-1.698,-1.7014,-1.7015,-1.7016,-1.7039,-1.7031,-1.7058,-1.7048,-1.7036,-1.7047,-1.7046,-1.7065,-1.7068,-1.7074,-1.7097,-1.7098,-1.7085,-1.7086,-1.7086,-1.7087,0,0,0,0,0,0,0,-1.6974,-1.6978,-1.702,-1.7014,-1.7016,-1.7017,-1.702,-1.7036,-1.7052,-1.7037,-1.7037,-1.7041,-1.7066,-1.7073,-1.7075,-1.7099,-1.7085,-1.7086,-1.7087,-1.7088,-1.7133,-1.7134,0,0,0,0,0,0,-1.6971,-1.6977,-1.7019,-1.7021,-1.6995,-1.7018,-1.7022,-1.7032,-1.7052,-1.7054,-1.7041,-1.7041,-1.707,-1.7073,-1.7076,-1.7094,-1.7086,-1.7088,-1.7089,-1.7133,-1.7133,-1.7134,0,0,0,0,0,0,-1.697,-1.6975,-1.7017,-1.6999,-1.7004,-1.7019,-1.703,-1.7033,-1.704,-1.7055,-1.7058,-1.7046,-1.707,-1.7074,-1.709,-1.7095,-1.7089,-1.709,-1.7133,-1.7133,-1.7134,-1.7131,0,0,0,0,0,0,-1.6968,-1.6974,-1.6981,-1.6999,-1.7005,-1.7032,-1.7031,-1.7034,-1.7043,-1.7043,-1.706,-1.7062,-1.707,-1.7088,-1.7092,-1.7097,-1.7091,-1.7132,-1.7133,-1.7133,-1.7131,-1.7131,-1.7132,0,0,0,0,0,-1.6966,-1.6979,-1.6982,-1.6987,-1.7014,-1.7032,-1.7036,-1.7045,-1.7043,-1.7049,-1.7059,-1.7062,-1.7094,-1.7089,-1.7094,-1.71,-1.7132,-1.7133,-1.7133,-1.713,-1.7131,-1.7132,0,0,0,0,0,0,-1.6962,-1.6982,-1.6985,-1.7004,-1.7016,-1.7034,-1.7042,-1.7046,-1.7058,-1.7058,-1.7068,-1.7072,-1.7087,-1.7095,-1.709,-1.7115,-1.7113,-1.7114,-1.7109,-1.711,-1.711,-1.7108,-1.7092,0,0,0,0,0,-1.6963,-1.6977,-1.6993,-1.7009,-1.7015,-1.7027,-1.7035,-1.7041,-1.7054,-1.7059,-1.707,-1.7082,-1.7094,-1.7103,-1.7115,-1.7132,-1.7135,-1.7138,-1.7138,-1.7139,-1.714,-1.7147,-1.7148,-1.7136,-1.7136,-1.7136,0,0,-1.6966,-1.6979,-1.6987,-1.7008,-1.7018,-1.7031,-1.7032,-1.7046,-1.7055,-1.7061,-1.7077,-1.7085,-1.7099,-1.7115,-1.7122,-1.7122,-1.7144,-1.7139,-1.714,-1.7141,-1.7148,-1.7149,-1.715,-1.7136,-1.7136,-1.7136,0,0,-1.6978,-1.6989,-1.7003,-1.7013,-1.7028,-1.7036,-1.7039,-1.7055,-1.7061,-1.7077,-1.7081,-1.7092,-1.7114,-1.7123,-1.713,-1.7143,-1.7146,-1.7146,-1.7149,-1.7157,-1.7158,-1.7158,-1.7162,-1.7163,-1.7148,-1.7148,-1.7148,0,-1.6979,-1.7,-1.7009,-1.7022,-1.7031,-1.7037,-1.705,-1.7059,-1.7077,-1.7082,-1.7081,-1.7108,-1.7118,-1.7135,-1.7138,-1.7144,-1.7147,-1.7145,-1.7157,-1.7158,-1.7159,-1.7162,-1.7164,-1.7147,-1.7147,-1.7147,-1.7147,0,-1.7,-1.7014,-1.7023,-1.704,-1.7049,-1.7062,-1.7072,-1.7081,-1.7085,-1.7092,-1.7107,-1.7119,-1.7133,-1.7138,-1.7142,-1.7155,-1.7154,-1.7155,-1.7153,-1.716,-1.7163,-1.7164,-1.7147,-1.7147,-1.7147,-1.7147,0,0,-1.7011,-1.7032,-1.7035,-1.7042,-1.7059,-1.7069,-1.7081,-1.7095,-1.7101,-1.7113,-1.7123,-1.714,-1.7141,-1.7149,-1.7154,-1.7161,-1.7168,-1.716,-1.7161,-1.7161,-1.7181,-1.7181,-1.7182,-1.717,-1.717,-1.717,-1.718,0,-1.7024,-1.7047,-1.7055,-1.7074,-1.7085,-1.709,-1.7101,-1.7111,-1.7118,-1.7128,-1.7135,-1.7147,-1.7147,-1.7152,-1.7158,-1.7166,-1.7172,-1.7165,-1.7178,-1.7179,-1.7175,-1.7184,-1.7184,-1.7192,-1.7182,-1.7182,-1.7182,0,-1.7043,-1.7055,-1.7075,-1.7088,-1.7093,-1.7102,-1.7115,-1.7125,-1.7136,-1.714,-1.7148,-1.7153,-1.7164,-1.7162,-1.7177,-1.7172,-1.7177,-1.7182,-1.7182,-1.7184,-1.7181,-1.7185,-1.7195,-1.7196,-1.7184,-1.7184,-1.7184,0,-1.7048,-1.7069,-1.7083,-1.7089,-1.7105,-1.7111,-1.7118,-1.7128,-1.7136,-1.7146,-1.7151,-1.7162,-1.7168,-1.7177,-1.7184,-1.7181,-1.7198,-1.7196,-1.7201,-1.7201,-1.7204,-1.7204,-1.7215,-1.7208,-1.7208,-1.7208,-1.7208,0,-1.7062,-1.7073,-1.7085,-1.7093,-1.7106,-1.7114,-1.7126,-1.7133,-1.7142,-1.7151,-1.7156,-1.7164,-1.7173,-1.7181,-1.7187,-1.7198,-1.7201,-1.7204,-1.7205,-1.7203,-1.7203,-1.7207,-1.7206,-1.7209,-1.7208,-1.7208,-1.7208,0,-1.7069,-1.7078,-1.7093,-1.7106,-1.711,-1.7118,-1.7129,-1.7137,-1.7143,-1.7155,-1.7158,-1.7168,-1.7178,-1.7186,-1.72,-1.7203,-1.7215,-1.7216,-1.7211,-1.7211,-1.7216,-1.7215,-1.7229,-1.7231,-1.7224,-1.7224,-1.7224,0,-1.7077,-1.7086,-1.71,-1.7107,-1.7113,-1.7124,-1.7131,-1.7138,-1.7145,-1.7158,-1.7164,-1.7175,-1.7184,-1.72,-1.7208,-1.7218,-1.722,-1.7224,-1.7221,-1.7219,-1.7219,-1.7218,-1.7218,-1.7224,-1.7224,-1.7224,-1.7224,0,-1.709,-1.7093,-1.7104,-1.7115,-1.7124,-1.7133,-1.7142,-1.7147,-1.7156,-1.7163,-1.7174,-1.7181,-1.7195,-1.7205,-1.7216,-1.7222,-1.7224,-1.7225,-1.7227,-1.7225,-1.7221,-1.7223,-1.7212,-1.7225,-1.7225,-1.7225,-1.7225,-1.7225,-1.7098,-1.7105,-1.7116,-1.7127,-1.7134,-1.7142,-1.715,-1.7157,-1.7166,-1.7178,-1.7181,-1.7192,-1.7201,-1.7216,-1.7222,-1.723,-1.7229,-1.7232,-1.7232,-1.7233,-1.7232,-1.722,-1.7232,-1.7232,-1.7232,-1.7232,-1.7232,0,-1.711,-1.7117,-1.7127,-1.7139,-1.7147,-1.7149,-1.7159,-1.7165,-1.7175,-1.7183,-1.7192,-1.7204,-1.7213,-1.7221,-1.7231,-1.7236,-1.7237,-1.7238,-1.7238,-1.7239,-1.7232,-1.723,-1.7237,-1.7237,-1.7237,-1.7237,-1.7237,-1.7237,-1.7117,-1.713,-1.7134,-1.7149,-1.7156,-1.7167,-1.7172,-1.7179,-1.7186,-1.7199,-1.7207,-1.7212,-1.722,-1.723,-1.7238,-1.724,-1.7243,-1.7244,-1.7246,-1.724,-1.7239,-1.7239,-1.7236,-1.7244,-1.7244,-1.7251,-1.7251,-1.7251]}]]